Flag Island, MN

8:40 PM CDT on July 25, 2017 (GMT -0500)
Flag Island

Weather History for KFGN - February, 2014

Change the Weather History Date:

Friday, February 21, 2014

  Actual Average Record
Temperature  
Mean Temperature 4 °F -  
Max Temperature 6 °F 18 °F 37 °F (2000)
Min Temperature 1 °F 2 °F -25 °F (2001)
Degree Days  
Heating Degree Days 62    
Moisture  
Dew Point -2 °F    
Average Humidity 82    
Maximum Humidity 92    
Minimum Humidity 72    
Precipitation  
Precipitation 0.00 in - - ()
Sea Level Pressure  
Sea Level Pressure 29.44 in    
Wind  
Wind Speed 23 mph (NW)    
Max Wind Speed 30 mph    
Max Gust Speed 41 mph    
Visibility 2 miles    
Events Snow    
Averages and records for this station are not official NWS values.
T = Trace of Precipitation, MM = Missing Value Source: NWS Daily Summary

Daily Weather History Graph

Daily Weather History Graph

Search for Another Location

Airport or City:

Trip Planner

Search our weather history database for the weather conditions in past years. The results will help you decide how hot, cold, wet, or windy it might be!

Date:

Astronomy

Feb. 21, 2014 Rise Set
Actual Time 7:17 AM CST 5:49 PM CST
Civil Twilight 6:45 AM CST 6:22 PM CST
Nautical Twilight 6:08 AM CST 6:59 PM CST
Astronomical Twilight 5:31 AM CST 7:36 PM CST
Moon 12:18 AM CST (2/21) 10:06 AM CST (2/21)
Length of Visible Light 11h 36m
Length of Day
10h 32m
Waning Gibbous, 60% of the Moon is Illuminated
Feb 21
Waning Gibbous
Feb 22
Last Quarter
Mar 1
New
Mar 8
First Quarter
Mar 16
Full

Hourly Weather History & Observations

Time (CST) Temp. Windchill Dew Point Humidity Pressure Visibility Wind Dir Wind Speed Gust Speed Precip Events Conditions
12:13 AM 6.8 °F -13.4 °F 3.2 °F 85% 29.50 in 1.8 mi NW 20.7 mph - N/A Snow Light Snow
12:33 AM 6.8 °F -12.9 °F 3.2 °F 85% 29.49 in 1.8 mi NW 19.6 mph - N/A Snow Light Snow
12:54 AM 6.8 °F -13.4 °F 3.2 °F 85% 29.49 in 2.0 mi NW 20.7 mph - N/A   Overcast
1:13 AM 6.8 °F -13.4 °F 1.4 °F 79% 29.48 in 3.0 mi NW 20.7 mph - N/A   Overcast
1:33 AM 5.0 °F -15.7 °F 1.4 °F 85% 29.47 in 3.0 mi NW 20.7 mph - N/A   Overcast
1:54 AM 5.0 °F -16.2 °F 1.4 °F 85% 29.46 in 2.0 mi NW 21.9 mph - N/A   Overcast
2:13 AM 3.2 °F -19.5 °F 1.4 °F 92% 29.45 in 1.8 mi NW 24.2 mph - N/A   Overcast
2:33 AM 3.2 °F -18.1 °F 1.4 °F 92% 29.45 in 1.8 mi NW 20.7 mph - N/A   Overcast
2:54 AM 3.2 °F -18.1 °F 1.4 °F 92% 29.44 in 1.8 mi NW 20.7 mph - N/A Snow Light Snow
3:13 AM 3.2 °F -18.6 °F 1.4 °F 92% 29.43 in 1.0 mi NW 21.9 mph 28.8 mph N/A Snow Light Snow
3:33 AM 3.2 °F -18.1 °F 1.4 °F 92% 29.42 in 1.2 mi NW 20.7 mph 25.3 mph N/A Snow Light Snow
3:54 AM 3.2 °F -17.6 °F -0.4 °F 85% 29.42 in 1.0 mi NW 19.6 mph - N/A Snow Light Snow
4:13 AM 3.2 °F -19.0 °F -0.4 °F 85% 29.42 in 1.0 mi NW 23.0 mph 27.6 mph N/A Snow Light Snow
4:33 AM 3.2 °F -19.5 °F -0.4 °F 85% 29.41 in 1.0 mi NW 24.2 mph 28.8 mph N/A Snow Light Snow
4:54 AM 3.2 °F -18.6 °F -0.4 °F 85% 29.41 in 1.2 mi NW 21.9 mph - N/A   Overcast
5:13 AM 1.4 °F -21.9 °F -2.2 °F 85% 29.41 in 1.2 mi NW 24.2 mph 29.9 mph N/A Snow Light Snow
5:33 AM 1.4 °F -21.4 °F -2.2 °F 85% 29.41 in 1.5 mi NW 23.0 mph - N/A   Overcast
5:54 AM 1.4 °F -21.4 °F -2.2 °F 85% 29.41 in 2.0 mi NW 23.0 mph - N/A   Overcast
6:13 AM 1.4 °F -21.4 °F -2.2 °F 85% 29.41 in 2.0 mi NW 23.0 mph - N/A   Overcast
6:33 AM 1.4 °F -20.5 °F -2.2 °F 85% 29.40 in 3.0 mi NW 20.7 mph - N/A   Overcast
6:54 AM 1.4 °F -21.4 °F -2.2 °F 85% 29.39 in 2.5 mi NW 23.0 mph 27.6 mph N/A   Overcast
7:13 AM 1.4 °F -21.0 °F -2.2 °F 85% 29.39 in 2.0 mi NW 21.9 mph - N/A   Overcast
7:33 AM 1.4 °F -21.9 °F -2.2 °F 85% 29.39 in 1.0 mi NW 24.2 mph 28.8 mph N/A Snow Light Snow
7:54 AM 1.4 °F -21.4 °F -2.2 °F 85% 29.39 in 0.8 mi NW 23.0 mph - N/A Snow Light Snow
8:13 AM 1.4 °F -21.0 °F -2.2 °F 85% 29.38 in 1.0 mi NW 21.9 mph 29.9 mph N/A Snow Light Snow
8:33 AM 1.4 °F -21.0 °F -2.2 °F 85% 29.38 in 0.8 mi NW 21.9 mph - N/A Snow Light Snow
8:54 AM 1.4 °F -21.0 °F -2.2 °F 85% 29.37 in 1.0 mi NW 21.9 mph - N/A Snow Light Snow
9:13 AM 1.4 °F -21.4 °F -2.2 °F 85% 29.37 in 1.2 mi NW 23.0 mph 28.8 mph N/A Snow Light Snow
9:33 AM 1.4 °F -22.3 °F -2.2 °F 85% 29.36 in 1.2 mi NW 25.3 mph - N/A Snow Light Snow
9:53 AM 1.4 °F -21.9 °F -2.2 °F 85% 29.36 in 1.0 mi NW 24.2 mph 29.9 mph N/A Snow Light Snow
10:13 AM 1.4 °F -21.4 °F -2.2 °F 85% 29.36 in 1.2 mi NW 23.0 mph 33.4 mph N/A Snow Light Snow
10:34 AM 1.4 °F -23.2 °F -2.2 °F 85% 29.35 in 1.0 mi NW 27.6 mph 31.1 mph N/A   Overcast
10:53 AM 1.4 °F -23.2 °F -2.2 °F 85% 29.35 in 1.0 mi WNW 27.6 mph 34.5 mph N/A   Overcast
11:13 AM 3.2 °F -20.7 °F -2.2 °F 78% 29.35 in 0.8 mi NW 27.6 mph 34.5 mph N/A   Haze
11:34 AM 3.2 °F -20.3 °F -2.2 °F 78% 29.35 in 1.0 mi WNW 26.5 mph 34.5 mph N/A   Haze
11:53 AM 3.2 °F -21.1 °F -0.4 °F 85% 29.35 in 1.2 mi WNW 28.8 mph 35.7 mph N/A   Haze
12:13 PM 3.2 °F -19.0 °F -0.4 °F 85% 29.35 in 1.8 mi WNW 23.0 mph - N/A   Haze
12:34 PM 3.2 °F -20.7 °F -0.4 °F 85% 29.35 in 2.0 mi WNW 27.6 mph 31.1 mph N/A   Haze
12:53 PM 3.2 °F -19.9 °F -0.4 °F 85% 29.36 in 1.8 mi NW 25.3 mph 32.2 mph N/A   Haze
1:13 PM 3.2 °F -18.6 °F -0.4 °F 85% 29.36 in 1.8 mi WNW 21.9 mph 32.2 mph N/A   Haze
1:34 PM 3.2 °F -20.3 °F -0.4 °F 85% 29.36 in 2.0 mi WNW 26.5 mph 31.1 mph N/A   Haze
1:53 PM 3.2 °F -20.3 °F -2.2 °F 78% 29.37 in 2.5 mi WNW 26.5 mph 34.5 mph N/A   Haze
2:13 PM 5.0 °F -17.5 °F -0.4 °F 78% 29.38 in 3.0 mi WNW 25.3 mph 29.9 mph N/A   Haze
2:33 PM 3.2 °F -21.1 °F -2.2 °F 78% 29.38 in 2.0 mi WNW 28.8 mph 33.4 mph N/A   Haze
2:53 PM 3.2 °F -19.9 °F -0.4 °F 85% 29.39 in 1.5 mi WNW 25.3 mph 32.2 mph N/A   Haze
3:14 PM 5.0 °F -16.7 °F -0.4 °F 78% 29.40 in 1.8 mi NW 23.0 mph 34.5 mph N/A   Haze
3:33 PM 5.0 °F -18.7 °F -0.4 °F 78% 29.41 in 2.0 mi WNW 28.8 mph 34.5 mph N/A   Haze
3:54 PM 3.2 °F -20.3 °F -0.4 °F 85% 29.42 in 1.8 mi NW 26.5 mph 33.4 mph N/A   Haze
4:13 PM 5.0 °F -17.5 °F -0.4 °F 78% 29.43 in 3.0 mi NW 25.3 mph 34.5 mph N/A   Haze
4:34 PM 5.0 °F -19.0 °F -0.4 °F 78% 29.44 in 5.0 mi WNW 29.9 mph 33.4 mph N/A   Haze
4:53 PM 3.2 °F -19.0 °F -2.2 °F 78% 29.46 in 4.0 mi NW 23.0 mph 26.5 mph N/A   Haze
5:14 PM 3.2 °F -18.6 °F -2.2 °F 78% 29.46 in 1.5 mi NW 21.9 mph 36.8 mph N/A Snow Light Snow
5:33 PM 3.2 °F -19.9 °F -2.2 °F 78% 29.47 in 1.5 mi NW 25.3 mph 33.4 mph N/A Snow Light Snow
5:54 PM 3.2 °F -21.5 °F -2.2 °F 78% 29.48 in 1.5 mi WNW 29.9 mph 35.7 mph N/A   Haze
6:13 PM 3.2 °F -21.5 °F -2.2 °F 78% 29.48 in 2.0 mi WNW 29.9 mph 35.7 mph N/A Snow Light Snow
6:33 PM 3.2 °F -21.5 °F -2.2 °F 78% 29.49 in 1.8 mi NW 29.9 mph 41.4 mph N/A Snow Light Snow
6:53 PM 3.2 °F -21.5 °F -2.2 °F 78% 29.49 in 2.5 mi WNW 29.9 mph 38.0 mph N/A   Haze
7:13 PM 3.2 °F -20.7 °F -2.2 °F 78% 29.50 in 2.0 mi NW 27.6 mph 38.0 mph N/A Snow Light Snow
7:33 PM 3.2 °F -20.3 °F -2.2 °F 78% 29.51 in 2.0 mi NW 26.5 mph 34.5 mph N/A Snow Light Snow
7:54 PM 1.4 °F -22.3 °F -2.2 °F 85% 29.53 in 2.0 mi NW 25.3 mph 33.4 mph N/A Snow Light Snow
8:13 PM 1.4 °F -21.4 °F -2.2 °F 85% 29.53 in 2.0 mi NW 23.0 mph 33.4 mph N/A Snow Light Snow
8:34 PM 1.4 °F -20.5 °F -4.0 °F 78% 29.54 in 3.0 mi WNW 20.7 mph 29.9 mph N/A   Haze
8:53 PM 1.4 °F -23.2 °F -4.0 °F 78% 29.55 in 4.0 mi WNW 27.6 mph 33.4 mph N/A   Haze
9:13 PM 1.4 °F -20.5 °F -4.0 °F 78% 29.55 in 5.0 mi NW 20.7 mph 27.6 mph N/A   Haze
9:33 PM 1.4 °F -22.3 °F -4.0 °F 78% 29.55 in 5.0 mi WNW 25.3 mph 29.9 mph N/A   Haze
9:54 PM 1.4 °F -19.9 °F -5.8 °F 72% 29.55 in 7.0 mi NW 19.6 mph 28.8 mph N/A   Scattered Clouds
10:13 PM 1.4 °F -19.9 °F -5.8 °F 72% 29.56 in 7.0 mi NW 19.6 mph 27.6 mph N/A   Scattered Clouds
10:33 PM 1.4 °F -21.4 °F -5.8 °F 72% 29.56 in 10.0 mi WNW 23.0 mph 29.9 mph N/A   Scattered Clouds
10:54 PM 1.4 °F -21.4 °F -5.8 °F 72% 29.56 in 5.0 mi NW 23.0 mph 32.2 mph N/A   Haze
11:13 PM 1.4 °F -21.0 °F -5.8 °F 72% 29.56 in 7.0 mi WNW 21.9 mph 29.9 mph N/A   Mostly Cloudy
11:33 PM 1.4 °F -22.3 °F -5.8 °F 72% 29.56 in 10.0 mi WNW 25.3 mph 29.9 mph N/A   Overcast
11:53 PM 1.4 °F -21.4 °F -4.0 °F 78% 29.57 in 10.0 mi WNW 23.0 mph 28.8 mph N/A   Overcast